Regional Weather Roundup
Issued by NWS Burlington, VT

Home | Current Version | Previous Version | Text Only | Print | Product List | Glossary On
Versions: 1 2 3 4 5 6 7 8 9 10 11 12 13 14 15 16 17 18 19 20 21 22 23 24 25 26 27 28 29 30 31 32 33 34 35 36 37 38 39 40 41 42 43 44 45 46 47 48 49 50
000
ASUS41 KBTV 262310
RWRBTV
VERMONT REGIONAL WEATHER ROUNDUP
NATIONAL WEATHER SERVICE BURLINGTON VT
600 PM EST THU FEB 26 2015

NOTE: "FAIR" INDICATES FEW OR NO CLOUDS BELOW 12,000 FEET WITH NO
SIGNIFICANT WEATHER AND/OR OBSTRUCTIONS TO VISIBILITY.

* THESE REPORTS ARE NOT UNDER NWS QUALITY CONTROL AND/OR DO NOT
  REPORT WEATHER SUCH AS PRECIPITATION AND FOG.

VTZ001>019-270000-
_____VERMONT_____


CITY           SKY/WX    TMP DP  RH WIND       PRES   REMARKS
BURLINGTON     PTCLDY     8 -11  41 N8        30.11R
MONTPELIER     CLEAR      7  -8  50 NW7       30.03R
MORRISVILLE    CLEAR      7 -10  46 N7        30.06R
ST. JOHNSBURY*   N/A     11  -8  42 MISG      30.02R
LYNDONVILLE*   FAIR       8 -13  37 NW5       30.01R
MIDDLEBURY*    FAIR       9  -8  45 N5        30.07R
RUTLAND*       MOCLDY    10  -8  44 N6        30.02R
SPRINGFIELD    MOCLDY    17  -5  37 NW3       30.01R
HIGHGATE*      FAIR       4 -10  53 CALM      30.14R
NEWPORT*       FAIR       4 -10  51 NW7       30.04R
BENNINGTON     MOCLDY    15  -3  44 W6        30.00R

_____LAKE CHAMPLAIN_____


CITY           SKY/WX    TMP DP  RH WIND       PRES   REMARKS

$$

NYZ007-026>031-035-052-083-270000-
_____NORTHERN NEW YORK_____


CITY           SKY/WX    TMP DP  RH WIND       PRES   REMARKS
PLATTSBURGH    CLEAR      6  -6  57 NE3       30.14R
SARANAC LAKE   PTCLDY     5 -10  50 VRB5      29.95R
MASSENA        CLEAR      4 -13  45 W3        30.16R
OGDENSBURG*    CLEAR      3  -6  66 CALM      30.15R
POTSDAM*       MOCLDY     7  -8  51 CALM      30.13R
WATERTOWN      CLOUDY    11  -6  46 NE6       30.14R
FT DRUM        CLOUDY     7  -8  48 N5        30.10R
ALBANY         CLOUDY    17  -5  37 N7        30.07R
GLENS FALLS    CLOUDY    14  -7  38 NE7       30.08R

$$
NHZ002-005-011-270000-
_____NEW HAMPSHIRE_____


CITY           SKY/WX    TMP DP  RH WIND       PRES   REMARKS
LEBANON        MOCLDY    15  -2  46 NE6       30.01R
KEENE          CLOUDY    19  -2  38 NW3       29.99R
MT WASHINGTON  MOCLDY     0 -26  29 NW25        N/A  WCI -25
PLYMOUTH       CLOUDY    16  -2  44 W13G18    29.99R WCI   2
WHITEFIELD     MOCLDY    12  -8  40 N7        29.97R

$$

_____REGIONAL QUEBEC LOCATIONS_____


CITY           SKY/WX    TMP DP  RH WIND       PRES   REMARKS
MONTREAL       MOCLDY     7  -8  51 SW9       30.14R
QUEBEC CITY    MOCLDY     3 -11  51 W13       30.08R WCI -14
SHERBROOKE     PTCLDY     5 -11  47 NW7       30.04R

_____REGIONAL ONTARIO LOCATIONS_____


CITY           SKY/WX    TMP DP  RH WIND       PRES   REMARKS
OTTAWA         MOCLDY     3 -11  51 W9        30.14R

______KEY______
VSB  - VISIBILITY IN MILES
WCI  - WIND CHILL INDEX
HX   - HEAT INDEX
$$
NNNN



USA.gov is the U.S. government's official web portal to all federal, state and local government web resources and services.